Tok, AK

12:21 AM AKST on February 24, 2017 (GMT -0900)
Northway

Weather History for PAOR - April, 2013

Change the Weather History Date:

Sunday, April 21, 2013

  Actual Average Record
Temperature  
Mean Temperature 24 °F -  
Max Temperature 43 °F 45 °F 60 °F (1978)
Min Temperature 5 °F 19 °F -10 °F (1972)
Degree Days  
Heating Degree Days 42    
Moisture  
Dew Point 6 °F    
Average Humidity 48    
Maximum Humidity 80    
Minimum Humidity 21    
Precipitation  
Precipitation 0.00 in - - ()
Snow  
Snow 0.00 in - - ()
Snow Depth 13.00 in    
Sea Level Pressure  
Sea Level Pressure 30.40 in    
Wind  
Wind Speed 1 mph (North)    
Max Wind Speed 7 mph    
Max Gust Speed -    
Visibility 10 miles    
Events      
Averages and records for this station are not official NWS values.
T = Trace of Precipitation, MM = Missing Value Source: NWS Daily Summary

Daily Weather History Graph

Daily Weather History Graph

Search for Another Location

Airport or City:

Trip Planner

Search our weather history database for the weather conditions in past years. The results will help you decide how hot, cold, wet, or windy it might be!

Date:

Astronomy

Apr. 21, 2013 Rise Set
Actual Time 5:39 AM AKDT 9:15 PM AKDT
Civil Twilight 4:43 AM AKDT 10:11 PM AKDT
Nautical Twilight 3:17 AM AKDT 11:40 PM AKDT
Astronomical Twilight Sun does not rise Sun does not rise
Moon 3:55 PM AKDT (4/21) 4:28 AM AKDT (4/21)
Length of Visible Light 17h 28m
Length of Day
15h 36m
Waxing Gibbous, 81% of the Moon is Illuminated
Apr 21
Waxing Gibbous
Apr 25
Full
May 2
Last Quarter
May 9
New
May 17
First Quarter

Hourly Weather History & Observations

Time (AKDT) Temp. Windchill Dew Point Humidity Pressure Visibility Wind Dir Wind Speed Gust Speed Precip Events Conditions
12:53 AM 14.0 °F - 6.1 °F 71% 30.40 in 10.0 mi Calm Calm - N/A   Clear
1:53 AM 10.0 °F - 3.0 °F 73% 30.41 in 10.0 mi Calm Calm - N/A   Clear
2:53 AM 8.1 °F - 1.0 °F 73% 30.42 in 10.0 mi Calm Calm - N/A   Clear
3:53 AM 6.1 °F -2.8 °F 1.0 °F 80% 30.41 in 10.0 mi ENE 4.6 mph - N/A   Partly Cloudy
4:53 AM 8.1 °F - 1.0 °F 73% 30.41 in 10.0 mi Calm Calm - N/A   Partly Cloudy
5:53 AM 5.0 °F - -0.9 °F 76% 30.42 in 10.0 mi Calm Calm - N/A   Partly Cloudy
6:53 AM 9.0 °F - 1.9 °F 73% 30.41 in 10.0 mi Calm Calm - N/A   Partly Cloudy
7:53 AM 18.0 °F 12.7 °F 6.1 °F 60% 30.41 in 10.0 mi ESE 3.5 mph - N/A   Partly Cloudy
8:53 AM 24.1 °F 19.7 °F 7.0 °F 48% 30.40 in 10.0 mi East 3.5 mph - N/A   Clear
9:53 AM 30.0 °F 26.5 °F 9.0 °F 41% 30.40 in 10.0 mi ENE 3.5 mph - N/A   Partly Cloudy
10:53 AM 34.0 °F - 8.1 °F 34% 30.40 in 10.0 mi Calm Calm - N/A   Partly Cloudy
11:53 AM 35.1 °F - 8.1 °F 33% 30.40 in 10.0 mi Calm Calm - N/A   Partly Cloudy
12:53 PM 37.9 °F - 8.1 °F 29% 30.40 in 10.0 mi Calm Calm - N/A   Partly Cloudy
1:53 PM 39.0 °F - 8.1 °F 28% 30.40 in 10.0 mi Calm Calm - N/A   Partly Cloudy
2:53 PM 41.0 °F 37.1 °F 6.1 °F 24% 30.39 in 10.0 mi Variable 5.8 mph - N/A   Partly Cloudy
3:53 PM 42.1 °F 38.4 °F 5.0 °F 22% 30.39 in 10.0 mi Variable 5.8 mph - N/A   Scattered Clouds
4:53 PM 42.1 °F 38.4 °F 5.0 °F 22% 30.38 in 10.0 mi WNW 5.8 mph - N/A   Scattered Clouds
5:53 PM 42.1 °F 37.7 °F 3.9 °F 21% 30.38 in 10.0 mi WNW 6.9 mph - N/A   Scattered Clouds
6:53 PM 41.0 °F 38.0 °F 5.0 °F 23% 30.37 in 10.0 mi WNW 4.6 mph - N/A   Scattered Clouds
7:53 PM 37.0 °F 33.3 °F 10.9 °F 34% 30.36 in 10.0 mi West 4.6 mph - N/A   Scattered Clouds
8:53 PM 35.1 °F - 10.0 °F 35% 30.36 in 10.0 mi Calm Calm - N/A   Scattered Clouds
9:53 PM 27.0 °F - 12.0 °F 53% 30.39 in 10.0 mi Calm Calm - N/A   Scattered Clouds
10:53 PM 23.0 °F - 10.9 °F 60% 30.40 in 10.0 mi Calm Calm - N/A   Scattered Clouds
11:53 PM 19.0 °F - 10.9 °F 71% 30.42 in 10.0 mi Calm Calm - N/A   Scattered Clouds